www.pogodaiklimat.ru

Погода и климат >> Архив погоды >> Россия >> Якутия >> Усть-Мома


ПОГОДА в Усть-Моме

  • Прогноз погоды в Усть-Моме
  • Монитор погоды в Усть-Моме
  • Климат города

АРХИВ ПОГОДЫ в Усть-Моме

Время (UTC), дата Ветер
(напр.,м/с)
 
Видим.   Явления Облачность Т
(С)
Тd
(С)
f
(%)
Тe
(С)
Тes
(С)
Комфортность P
(гПа)
Po
(гПа)
Тmin
(С)
Tmax
(С)
R
(мм)
R24
(мм)
S
(см)
09 13.09 З 1 50 км 10/0
[Ac trans Cs]
+5.6 -2.8 55 +5 +5 1023.2 998.8 +7.2
12 13.09 штиль 0 50 км 8/0
[Ac trans Cs]
+2.1 -4.3 63 +1 +1 1023.0 998.5
15 13.09 штиль 0 50 км 6/0
[Ci fib]
+0.6 -2.7 79 -0 -0 1022.3 997.7
18 13.09 штиль 0 50 км 10/0
[Ac trans Cs]
+0.6 -2.7 79 -0 -0 1021.7 997.1
21 13.09 штиль 0 50 км 8/4
[Sc Ac trans Ci fib]
+1.5 -2.6 74 +1 +1 1020.6 996.1 +0.6
00 14.09 СЗ 5 50 км 9/3 1000 м
[Sc Ac trans Ci fib]
+4.4 -3.0 59 0 +1 1019.3 995.1
03 14.09 СЗ 5
{10}
50 км 9/4 1500 м
[Sc Ac As Ci fib]
+6.8 -3.2 49 +3 +4 1018.0 994.0
06 14.09 С 3
{11}
50 км 10/5 1500 м
[Sc Ac As]
+6.3 -0.8 60 +4 +4 1017.4 993.4
09 14.09 СЗ 3 50 км 10/6 1500 м
[Sc Ac und]
+4.7 -0.3 70 +1 +1 1016.4 992.3 +7.3
12 14.09 СЗ 2 50 км 6/3 1500 м
[Sc Ac trans Ci fib]
+3.7 -0.3 75 +1 +1 1015.4 991.2
15 14.09 З 2 50 км 9/3 1500 м
[Sc Ac trans Ci fib]
+2.3 -0.1 84 -1 -1 1014.7 990.4
18 14.09 штиль 0 50 км 10/3 1500 м
[Sc Ac trans]
+1.1 -1.5 83 0 0 1014.2 989.8
21 14.09 штиль 0 50 км 9/5 1500 м
[Sc Ac trans]
+1.0 -0.7 88 -0 -0 1013.9 989.5 +1.0
00 15.09 штиль 0 50 км 9/6 1000 м
[Sc Ac trans]
+3.9 +0.5 78 +3 +4 1013.2 989.1
03 15.09 СЗ 1 50 км 3/0
[Ac trans Ci fib]
+8.7 -2.2 46 +9 +13 1011.0 987.4
06 15.09 СЗ 2 50 км 3/0
[Ci fib]
+10.6 -1.7 42 +10 +11 1010.2 986.7
09 15.09 СЗ 1 50 км ясно +7.8 -0.4 56 +7 +7 1010.4 986.7 +10.8
12 15.09 СЗ 2 50 км ясно +4.0 -0.9 70 +1 +1 1010.4 986.4
15 15.09 СЗ 2 50 км ясно +2.1 -1.0 80 -1 -1 1010.5 986.3
18 15.09 штиль 0 50 км 3/0
[Ci fib]
-0.8 -2.1 91 -2 -2 1010.6 986.2
21 15.09 штиль 0 50 км 8/3 200 м
[St Ac trans Ci fib]
-2.4 -3.0 96 -4 -4 1010.7 986.1 -2.4
00 16.09 СЗ 2 50 км 8/6 1000 м
[Sc Ci fib]
+2.8 +1.0 88 -0 +1 1009.5 985.4
03 16.09 З 4 50 км 8/4 1000 м
[Sc Ci fib]
+6.6 -0.7 60 +3 +5 1008.0 984.2
06 16.09 С 1 50 км 8/0
[Ci fib]
+8.8 -1.7 48 +9 +10 1006.8 983.2
09 16.09 СЗ 1 50 км ясно +7.8 -0.4 56 +7 +7 1010.4 986.7 +10.8
12 16.09 СЗ 1 50 км 10/8 1500 м
[Sc Ac und]
+5.1 -0.6 67 +4 +4 1007.4 983.5
15 16.09 ЮЗ 1 50 км 10/10 1500 м
[]
+3.1 -2.0 69 +2 +2 1007.4 983.3
18 16.09 штиль 0 50 км слабый дождь 10/10 1000 м
[Sc]
+2.7 -0.3 81 +2 +2 1007.4 983.2
21 16.09 штиль 0 50 км 10/6 1000 м
[Sc Ac und]
+2.7 +0.6 86 +2 +2 1007.5 983.3 +1.6
00 17.09 штиль 0 20 км слабый дождь 10/6 1000 м
[St As op]
+4.7 +2.5 86 +4 +4 1007.3 983.3
03 17.09 штиль 0 20 км слабый дождь 10/8 1000 м
[Sc As op]
+5.4 +1.8 78 +5 +5 1006.7 982.9
06 17.09 штиль 0 20 км слабый дождь 10/9 1000 м
[Sc As op]
+6.3 +2.7 78 +6 +6 1006.6 982.9
09 17.09 штиль 0 20 км слабый дождь 10/9 1000 м
[Sc As op]
+5.5 +3.6 88 +4 +4 1007.6 983.7 +6.5 0.3
12 17.09 штиль 0 10 км слабый дождь 10/8 1000 м
[Sc As op]
+3.7 +3.2 97 +2 +2 1008.5 984.4
15 17.09 штиль 0 10 км слабый дождь 10/10 600 м
[Frnb Ns]
+3.5 +3.5 100 +2 +2 1009.1 985.0
18 17.09 штиль 0 10 км слабый дождь 10/9 300 м
[Frnb As op]
+2.5 +2.2 98 +1 +1 1010.0 985.8
21 17.09 штиль 0 20 км слабая морось {дождь} 10/10 200 м
[St]
+2.6 +2.3 98 +1 +1 1010.7 986.5 +2.5 1
00 18.09 штиль 0 20 км в посл. час морось {дождь} 10/10 300 м
[St]
+3.5 +2.2 91 +2 +2 1011.2 987.1
03 18.09 ЮЗ 1 50 км 10/6 1000 м
[Sc Ac trans]
+4.9 +2.4 84 +4 +4 1011.2 987.3
06 18.09 штиль 0 50 км 9/5 1000 м
[Sc Ac trans]
+6.5 +2.4 75 +6 +6 1011.4 987.5
09 18.09 штиль 0 50 км 10/8 1000 м
[Sc Ac trans]
+5.3 +1.6 77 +4 +4 1012.5 988.5 +6.6
12 18.09 штиль 0 50 км 10/8 1000 м
[Sc Ac trans]
+4.3 +2.8 90 +3 +3 1013.0 988.9
15 18.09 штиль 0 50 км 10/0
[Ci fib]
+3.2 +2.7 97 +2 +2 1013.3 989.1
18 18.09 штиль 0 50 км 10/0
[Ci fib]
+3.2 +2.7 97 +2 +2 1013.3 989.1
21 18.09 СЗ 1 50 км 10/4 1000 м
[Sc Ac und]
+3.0 +2.5 97 +1 +1 1014.4 990.2 +2.9
00 19.09 СЗ 2 50 км 10/6 1000 м
[St Ac trans]
+4.7 +2.5 86 +2 +2 1014.1 990.0
03 19.09 СЗ 3 50 км 10/6 600 м
[St Ac trans Ci fib]
+5.9 +1.9 75 +3 +3 1013.7 989.8
06 19.09 СЗ 2 50 км 9/6 600 м
[St Ac trans Ci fib]
+6.9 +1.7 69 +5 +5 1013.4 989.6
09 19.09 штиль 0 50 км 10/6 600 м
[St Ac trans Ci fib]
+5.1 +0.7 73 +4 +4 1013.5 989.5 +7.1
12 19.09 СЗ 4 50 км 10/6 1000 м
[Sc Ac trans]
+5.0 +1.5 78 +1 +1 1013.8 989.8
15 19.09 СЗ 2 50 км 10/9 1000 м
[Sc Ac trans]
+4.1 +1.3 82 +1 +1 1013.9 989.8
18 19.09 С 1 50 км 10/8 1000 м
[Sc Ac As]
+3.5 +1.4 86 +2 +2 1014.4 990.2
21 19.09 штиль 0 50 км 10/6 1000 м
[Sc Ac As]
+2.9 +1.3 89 +2 +2 1014.4 990.2 +2.9
00 20.09 З 1 50 км 10/4 1000 м
[Sc Ac und]
+4.0 +2.0 87 +3 +3 1014.6 990.5
03 20.09 С 1 50 км 10/6 1000 м
[Sc Ac und]
+5.3 +1.5 76 +4 +5 1014.3 990.3

 

Местоположение метеостанции Усть-Мома (Якутия, Россия): широта 66.45 долгота 143.20 высота над уровнем моря 196 м.

В архиве по умолчанию представлена погода в Усть-Моме за последнюю неделю. Архивные данные за месяц целиком и за предыдущие месяцы, начиная с января 2011 года, Вы можете получить, выбрав интересующий диапазон дат из раскрывающегося списка и нажав кнопку "Ввод!".


*Определитесь, кто Вы:
робот инопланетянин человек

Внимание! Время в таблицах - всемирное. Для получения местного времени необходимо прибавить поправку, которая в Усть-Моме равна 11 ч.

Смотрите также архив погоды в соседних городах и на ближайших метеорологических станциях:

Погода в Усть-Нере (Якутия, Россия) (214 км)
Погода в Белой Горе (Якутия, Россия) (266 км)
Погода в Юртах (Якутия, Россия) (275 км)
Погода в Усть-Чарках (Якутия, Россия) (294 км)
Погода в Делянкире (Якутия, Россия) (312 км)
Погода в Агаякане (Якутия, Россия) (354 км)
Погода в Депутатском (Якутия, Россия) (355 км)
Погода в Оймяконе (Якутия, Россия) (356 км)
Погода в Зырянке (Якутия, Россия) (356 км)
Погода в Иэме (Якутия, Россия) (360 км)

Пояснения к столбцам:

Ветер - указаны скорость ветра в м/с - средняя за 10 мин, порывы в срок и между сроками (в фигурных скобках) и направление, откуда дует ветер: С - северный, СВ - северо-восточный, В - восточный, ЮВ - юго-восточный, Ю - южный, ЮЗ - юго-западный, З - западный, СЗ - северо-западный.
Видимость - горизонтальная дальность видимости в метрах или километрах. При видимости от 1 до 10 км при отсутствии осадков обычно наблюдается дымка, при ухудшении видимости до 1 км и менее - туман. В сухую погоду видимость может ухудшаться дымом, пылью или мглою.
Явления - указаны атмосферные явления, наблюдавшиеся в срок или в последний час перед сроком; фигурными скобками обозначены явления, наблюдавшиеся между сроками (за 1-3 часа до срока); квадратными скобками обозначены град или гололедные отложения с указанием их диаметра в мм.
Облачность - указаны через наклонную черту общая и нижняя облачность в баллах и высота нижней границы облаков в метрах; квадратными скобками обозначены формы облаков: Ci - перистые, Cs - перисто-слоистые, Cc - перисто-кучевые, Ac - высококучевые, As - высокослоистые, Sc - слоисто-кучевые, Ns - слоисто-дождевые, Cu - кучевые, Cb - кучево-дождевые. Подробнее классификацию облаков см. в Атласе облаков (PDF).
T - Температура воздуха - температура, измеренная на высоте 2 м над землей.
Td - Температура точки росы - температура, при понижении до которой содержащийся в воздухе водяной пар достигнет насыщения.
f - Относительная влажность воздуха - влажноcть воздуха, измеренная на высоте 2 м над землей.
Te - Эффективная температура - температура, которую ощущает одетый по сезону человек в тени. Характеристика душности погоды. При расчете учитывается влияние влажности воздуха и скорости ветра на теплоощущения человека.
Tes - Эффективная температура на солнце - температура, которую ощущает человек, с поправкой на солнечный нагрев. Характеристика знойности погоды. Зависит от высоты солнца над горизонтом, облачности и скорости ветра. Ночью, в пасмурную погоду, а также при ветре 12 м/с и более поправка равна нулю.
P - Атмосферное давление - приведенное к уровню моря атмосферное давление.
Po - Атмосферное давление - измеренное на уровне метеостанции атмосферное давление.
Tmin - Минимальная температура - минимум температуры воздуха на высоте 2 м над землей.
Tmax - Максимальная температура - максимум температуры воздуха на высоте 2 м над землей.
R - Количество осадков - Количество выпавших осадков за период времени, мм. При наведении курсора мыши на число - период времени, за который выпало указанное количество осадков.
R24 - Количество осадков - Количество выпавших осадков за 24 часа, мм.
S - Снежный покров - Высота снежного покрова, см. При наведении курсора мыши на число - состояние снежного покрова и степень покрытия местности в баллах.